KD5BIG-13 Weather Reports


time (UTC)temp
C
wind
direction
speed
KPH
gust
KPH
rain 1hr
cm
rain 24hr
cm
rain mn
cm
humidity
%
barometer
mb
20260502204544 22 326 9.7 19.3 0.00 0.25 0.25 38 1021.7
20260502204042 21 334 3.2 11.3 0.00 0.25 0.25 43 1021.7
20260502203539 21 334 17.7 20.9 0.00 0.25 0.25 39 1021.8
20260502203036 21 324 9.7 20.9 0.00 0.25 0.25 40 1021.8
20260502202532 21 7 9.7 19.3 0.00 0.25 0.25 40 1021.8
20260502202031 21 290 1.6 8.0 0.00 0.25 0.25 43 1021.9
20260502201526 21 307 6.4 22.5 0.00 0.25 0.25 38 1021.9
20260502201022 21 326 3.2 22.5 0.00 0.25 0.25 38 1021.9
20260502200518 21 281 8.0 19.3 0.00 0.25 0.25 42 1021.9
20260502200017 21 230 4.8 9.7 0.00 0.25 0.25 43 1022.0
20260502195514 21 306 9.7 14.5 0.00 0.25 0.25 41 1022.0
20260502195010 21 341 12.9 30.6 0.00 0.25 0.25 38 1022.1
20260502194507 21 346 14.5 14.5 0.00 0.25 0.25 41 1022.2
20260502194002 21 283 6.4 8.0 0.00 0.25 0.25 40 1022.2
20260502193500 21 352 9.7 20.9 0.00 0.25 0.25 38 1022.3
20260502192955 21 336 14.5 20.9 0.00 0.25 0.25 36 1022.3
20260502192452 21 285 6.4 24.1 0.00 0.25 0.25 36 1022.2
20260502191949 21 344 16.1 17.7 0.00 0.25 0.25 37 1022.2
20260502191447 21 330 14.5 20.9 0.00 0.25 0.25 36 1022.3
20260502190945 21 328 4.8 11.3 0.00 0.25 0.25 38 1022.3
20260502190442 21 327 12.9 19.3 0.00 0.25 0.25 40 1022.4
20260502185938 21 349 8.0 22.5 0.00 0.25 0.25 41 1022.4
20260502185433 21 349 8.0 12.9 0.00 0.25 0.25 42 1022.5
20260502184931 21 332 17.7 19.3 0.00 0.25 0.25 40 1022.5
20260502184426 21 341 20.9 25.7 0.00 0.25 0.25 37 1022.5
20260502183923 21 304 11.3 19.3 0.00 0.25 0.25 37 1022.6
20260502183419 21 272 3.2 19.3 0.00 0.25 0.25 40 1022.6
20260502182915 21 336 11.3 33.8 0.00 0.25 0.25 38 1022.6
20260502182410 21 163 3.2 16.1 0.00 0.25 0.25 41 1022.5
20260502181907 21 337 14.5 14.5 0.00 0.25 0.25 48 1022.9
20260502181405 20 357 8.0 14.5 0.00 0.25 0.25 43 1022.8
20260502180903 21 336 19.3 27.4 0.00 0.25 0.25 42 1022.8
20260502180400 21 1 6.4 14.5 0.00 0.25 0.25 43 1022.9
20260502170318 20 315 4.8 20.9 0.00 0.25 0.25 41 1023.5
20260502164306 20 310 11.3 22.5 0.00 0.25 0.25 45 1023.5
20260502163802 20 329 6.4 11.3 0.00 0.25 0.25 46 1023.4
20260502163258 20 279 6.4 14.5 0.00 0.25 0.25 49 1023.5
20260502162755 19 343 4.8 20.9 0.00 0.25 0.25 51 1023.3
20260502162253 18 327 4.8 9.7 0.00 0.25 0.25 53 1023.2
20260502161749 18 6 8.0 29.0 0.00 0.25 0.25 51 1023.3
20260502161245 18 285 3.2 19.3 0.00 0.25 0.25 51 1023.0
20260502160744 19 25 4.8 11.3 0.00 0.25 0.25 52 1023.3
20260502160243 18 312 9.7 19.3 0.00 0.25 0.25 54 1023.3
20260502152206 17 23 9.7 14.5 0.00 0.25 0.25 66 1022.9
20260502151703 17 321 4.8 19.3 0.00 0.25 0.25 67 1022.9
20260502151201 17 356 17.7 17.7 0.00 0.25 0.25 72 1022.8
20260502150658 17 290 8.0 12.9 0.00 0.25 0.25 77 1022.7
20260502150154 17 334 11.3 14.5 0.00 0.25 0.25 74 1022.6
20260502140118 15 3 1.6 6.4 0.00 0.25 0.25 89 1022.0
20260502130542 12 312 1.6 9.7 0.00 0.25 0.25 98 1021.4
20260502123526 12 355 3.2 9.7 0.00 0.25 0.25 99 1021.1
20260502123022 12 339 6.4 8.0 0.00 0.25 0.25 99 1020.7
20260502122519 12 317 1.6 3.2 0.00 0.25 0.25 99 1021.0
20260502122017 12 338 4.8 6.4 0.00 0.25 0.25 99 1020.9
20260502121514 12 295 3.2 6.4 0.00 0.25 0.25 99 1021.0
20260502121011 12 326 6.4 9.7 0.00 0.25 0.25 99 1020.8
20260502120507 12 328 0.0 6.4 0.00 0.25 0.25 99 1020.7
20260502115502 12 350 3.2 4.8 0.00 0.25 0.25 99 1020.5
20260502114958 12 338 4.8 6.4 0.00 0.25 0.25 99 1020.2
20260502114455 12 319 9.7 9.7 0.00 0.25 0.25 99 1020.3
20260502113952 11 341 6.4 11.3 0.00 0.25 0.25 99 1020.1
20260502113449 11 352 3.2 4.8 0.00 0.25 0.25 99 1019.8
20260502112948 11 357 3.2 8.0 0.00 0.25 0.25 99 1019.8
20260502112445 11 347 6.4 8.0 0.00 0.25 0.25 99 1019.9
20260502111942 11 348 3.2 4.8 0.00 0.25 0.25 99 1019.7
20260502111439 11 0 3.2 6.4 0.00 0.25 0.25 99 1019.7
20260502110937 11 333 3.2 4.8 0.00 0.25 0.25 99 1019.3
20260502110434 11 289 6.4 8.0 0.00 0.25 0.25 99 1019.5
20260502105931 11 326 1.6 3.2 0.00 0.25 0.25 99 1019.4
20260502105428 11 331 3.2 3.2 0.00 0.25 0.25 99 1019.3
20260502104927 11 358 1.6 3.2 0.00 0.25 0.25 99 1019.2
20260502104423 11 312 0.0 3.2 0.00 0.25 0.25 99 1019.3
20260502103921 11 346 0.0 4.8 0.00 0.25 0.25 99 1019.2
20260502103419 11 341 4.8 4.8 0.00 0.25 0.25 99 1019.3
20260502102915 11 335 0.0 1.6 0.00 0.25 0.25 99 1019.3
20260502102412 11 326 3.2 8.0 0.00 0.25 0.25 99 1019.4
20260502101909 11 327 0.0 4.8 0.00 0.25 0.25 99 1019.2
20260502101408 11 343 0.0 3.2 0.00 0.25 0.25 99 1019.2
20260502100905 11 320 1.6 3.2 0.00 0.25 0.25 99 1019.2
20260502100404 11 328 0.0 1.6 0.00 0.25 0.25 99 1019.2
20260502091338 11 252 0.0 4.8 0.00 0.25 0.25 99 1019.4
20260502090836 11 310 0.0 4.8 0.00 0.25 0.25 99 1019.5
20260502090332 11 262 1.6 6.4 0.00 0.25 0.25 99 1019.2
20260502071227 11 9 0.0 3.2 0.00 0.23 0.23 98 1019.0
20260502070726 11 319 0.0 4.8 0.05 0.23 0.23 98 1019.1
20260502070223 11 343 3.2 6.4 0.00 0.23 0.23 98 1018.9
20260502065721 11 342 1.6 3.2 0.00 0.23 0.23 98 1019.0
20260502065218 11 282 3.2 6.4 0.00 0.23 0.23 97 1019.2
20260502064717 11 278 1.6 3.2 0.00 0.23 0.23 97 1018.8
20260502064214 11 266 3.2 3.2 0.00 0.23 0.23 97 1018.9
20260502063712 11 50 0.0 3.2 0.00 0.23 0.23 97 1019.1
20260502063209 11 321 3.2 6.4 0.00 0.23 0.23 97 1019.2
20260502062706 11 302 4.8 9.7 0.00 0.23 0.23 97 1019.1
20260502062204 11 309 1.6 11.3 0.05 0.23 0.23 97 1019.3
20260502061702 11 274 1.6 4.8 0.05 0.20 0.20 97 1019.5
20260502061159 11 48 0.0 3.2 0.05 0.20 0.20 97 1019.1
20260502060654 11 23 0.0 4.8 0.00 0.20 0.20 97 1018.8
20260502060151 11 343 6.4 6.4 0.00 0.20 0.20 97 1019.3
20260502055649 11 271 3.2 8.0 0.05 0.20 0.20 97 1019.5
20260502055147 11 336 3.2 6.4 0.13 0.20 0.20 97 1020.0
20260502054646 11 344 6.4 11.3 0.13 0.18 0.18 97 1020.2
20260502054142 11 228 3.2 8.0 0.13 0.18 0.18 97 1020.3
20260502053640 11 345 6.4 8.0 0.18 0.18 0.18 97 1020.0
20260502053137 11 288 8.0 14.5 0.30 0.15 0.15 97 1019.2
20260502052635 11 304 3.2 8.0 0.30 0.13 0.13 97 1019.9
20260502052133 11 335 6.4 12.9 0.30 0.10 0.10 97 1020.1
20260502051631 11 344 6.4 12.9 0.30 0.08 0.08 97 1020.0
20260502051129 11 266 3.2 11.3 0.23 0.05 0.05 97 1019.8
20260502050625 11 339 6.4 11.3 0.18 0.03 0.03 97 1019.5
20260502050121 11 335 8.0 11.3 0.13 0.00 0.00 97 1019.8
20260502045618 11 327 6.4 12.9 0.05 5.11 5.11 97 1019.7
20260502045115 11 334 6.4 11.3 0.05 5.11 5.11 97 1019.5
20260502044612 11 228 3.2 4.8 0.05 5.11 5.11 97 1019.8
20260502044108 11 314 3.2 6.4 0.13 5.11 5.11 97 1019.9
20260502043606 11 4 3.2 9.7 0.13 5.08 5.08 97 1019.9
20260502043102 11 32 0.0 6.4 0.13 5.08 5.08 97 1019.8
20260502042556 11 344 4.8 8.0 0.13 5.08 5.08 97 1019.8
20260502042054 11 333 6.4 8.0 0.05 5.05 5.05 98 1020.0
20260502041552 11 322 11.3 16.1 0.05 5.05 5.05 98 1019.7
20260502041049 11 315 3.2 9.7 0.05 5.05 5.05 98 1019.3
20260502040545 11 332 3.2 6.4 0.05 5.03 5.03 98 1019.3
20260502040043 11 282 3.2 8.0 0.13 5.03 5.03 98 1019.4
20260502035538 11 337 6.4 9.7 0.13 5.03 5.03 98 1019.4
20260502035036 11 335 6.4 8.0 0.18 5.00 5.00 98 1019.5
20260502034534 11 239 0.0 4.8 0.18 5.00 5.00 98 1019.3
20260502034032 11 249 1.6 3.2 0.13 4.98 4.98 98 1019.7
20260502033530 11 328 4.8 8.0 0.18 4.98 4.98 98 1019.8
20260502033027 11 324 4.8 4.8 0.23 4.95 4.95 98 1020.4
20260502032523 11 326 4.8 6.4 0.18 4.95 4.95 98 1020.4
20260502032020 11 333 3.2 4.8 0.18 4.93 4.93 98 1020.2
20260502031518 11 335 4.8 6.4 0.05 4.90 4.90 98 1020.2
20260502031015 11 13 0.0 8.0 0.05 4.90 4.90 98 1019.8
20260502030514 11 260 3.2 3.2 0.05 4.90 4.90 98 1019.7
20260502030012 11 261 1.6 3.2 0.00 4.88 4.88 98 1019.1
20260502025509 11 244 3.2 3.2 0.05 4.88 4.88 98 1018.9
20260502025007 11 342 3.2 8.0 0.05 4.88 4.88 98 1018.9
20260502024504 11 285 3.2 6.4 0.00 4.88 4.88 98 1018.7
20260502024003 11 285 3.2 4.8 0.00 4.88 4.88 98 1018.6
20260502023459 11 253 0.0 4.8 0.00 4.88 4.88 97 1018.6
20260502022957 11 293 4.8 8.0 0.00 4.88 4.88 97 1018.4
20260502022453 11 322 6.4 9.7 0.00 4.88 4.88 97 1018.3
20260502021950 11 284 6.4 9.7 0.05 4.88 4.88 98 1018.1
20260502021448 10 14 4.8 14.5 0.05 4.88 4.88 97 1018.0
20260502020944 10 343 8.0 9.7 0.00 4.85 4.85 97 1018.0
20260502020442 10 13 8.0 12.9 0.00 4.85 4.85 97 1017.9
20260502015939 10 329 12.9 16.1 0.00 4.85 4.85 97 1017.8
20260502015437 10 304 6.4 12.9 0.00 4.85 4.85 97 1017.7
20260502014933 10 301 3.2 16.1 0.00 4.85 4.85 97 1017.8
20260502014430 11 338 3.2 9.7 0.00 4.85 4.85 97 1017.8
20260502013926 11 304 9.7 14.5 0.00 4.85 4.85 97 1018.1
20260502013422 11 352 4.8 17.7 0.00 4.85 4.85 97 1018.2
20260502012919 11 320 6.4 14.5 0.05 4.85 4.85 97 1018.2
20260502012417 11 332 9.7 17.7 0.13 4.85 4.85 97 1018.2
20260502011914 11 337 8.0 11.3 0.13 4.85 4.85 97 1018.0
20260502011410 11 303 8.0 9.7 0.13 4.85 4.85 98 1017.8
20260502010907 11 341 8.0 9.7 0.18 4.83 4.83 98 1018.0
20260502010403 11 351 6.4 16.1 0.18 4.83 4.83 98 1017.7
20260502005900 11 317 4.8 11.3 0.13 4.80 4.80 98 1018.0
20260502005358 11 218 3.2 14.5 0.05 4.80 4.80 98 1017.9
20260502004855 11 289 0.0 9.7 0.05 4.78 4.78 98 1017.9
20260502004351 11 9 0.0 12.9 0.05 4.78 4.78 98 1017.8
20260502003849 11 305 9.7 11.3 0.05 4.78 4.78 98 1017.8
20260502003346 11 341 9.7 9.7 0.13 4.78 4.78 98 1017.5
20260502002842 11 308 3.2 16.1 0.18 4.75 4.75 98 1017.6
20260502002339 11 315 6.4 8.0 0.23 4.75 4.75 98 1017.9
20260502001837 11 332 4.8 9.7 0.18 4.72 4.72 98 1018.4
20260502001334 11 330 4.8 6.4 0.18 4.70 4.70 98 1018.7
20260502000832 11 256 0.0 3.2 0.13 4.70 4.70 98 1018.7
20260502000332 11 348 0.0 3.2 0.13 4.67 4.67 98 1018.7
20260501235826 11 331 0.0 6.4 0.18 4.67 4.67 98 1018.1
20260501235321 11 8 8.0 17.7 0.30 4.65 4.65 98 1017.7
20260501234817 11 335 4.8 11.3 0.36 4.65 4.65 98 1017.7
20260501234314 11 331 6.4 9.7 0.48 4.60 4.60 98 1017.6
20260501233813 11 325 8.0 8.0 0.71 4.57 4.57 98 1018.0
20260501233310 11 344 6.4 9.7 0.61 4.52 4.52 98 1018.2
20260501232805 11 321 4.8 6.4 0.43 4.45 4.45 98 1018.5
20260501232305 11 339 4.8 6.4 0.53 4.42 4.42 98 1018.3
20260501231800 11 338 4.8 9.7 0.79 4.39 4.39 98 1018.3
20260501231258 11 306 0.0 4.8 0.84 4.32 4.32 98 1018.0
20260501230756 11 284 3.2 6.4 0.97 4.24 4.24 98 1017.7
20260501230254 11 346 4.8 6.4 0.89 4.17 4.17 98 1017.9
20260501225751 11 315 6.4 9.7 0.79 4.06 4.06 98 1017.8
20260501225249 11 253 0.0 3.2 0.61 3.99 3.99 98 1017.3
20260501224745 11 227 1.6 6.4 0.43 3.94 3.94 98 1016.7
20260501224243 11 354 3.2 16.1 0.36 3.89 3.89 98 1016.1
20260501223738 11 256 3.2 6.4 0.43 3.86 3.86 97 1016.0
20260501223235 11 286 6.4 8.0 0.48 3.84 3.84 97 1015.6
20260501222731 11 264 6.4 9.7 0.53 3.78 3.78 97 1015.1
20260501222229 11 232 3.2 8.0 0.48 3.73 3.73 97 1015.1
20260501221725 11 329 8.0 14.5 0.48 3.71 3.71 97 1014.8
20260501221223 11 331 9.7 12.9 0.66 3.66 3.66 97 1015.1
20260501220720 11 182 8.0 8.0 0.89 3.63 3.63 97 1015.3
20260501220217 11 291 12.9 12.9 0.79 3.53 3.53 97 1015.5
20260501215714 11 286 6.4 14.5 0.79 3.45 3.45 97 1015.4
20260501215209 11 133 6.4 9.7 0.97 3.38 3.38 97 1015.6
20260501214704 11 311 3.2 14.5 0.71 3.28 3.28 97 1015.5
20260501214201 11 315 4.8 9.7 0.71 3.23 3.23 97 1015.8
20260501213657 11 337 6.4 8.0 0.79 3.17 3.17 97 1015.5
20260501213153 11 334 9.7 17.7 0.79 3.10 3.10 96 1015.6
20260501212650 11 11 3.2 9.7 0.89 3.02 3.02 96 1015.8
20260501212147 11 166 4.8 20.9 0.84 2.95 2.95 96 1015.5
20260501211643 11 334 14.5 14.5 0.79 2.87 2.87 96 1015.7
20260501211141 11 3 8.0 16.1 0.84 2.79 2.79 96 1016.0
20260501210637 11 273 6.4 8.0 0.97 2.72 2.72 96 1016.1
20260501210134 11 245 3.2 11.3 1.02 2.64 2.64 96 1016.3
20260501205631 11 281 8.0 20.9 0.79 2.54 2.54 96 1016.3
20260501205128 12 332 8.0 14.5 0.79 2.46 2.46 96 1016.7
20260501204625 12 345 4.8 16.1 0.89 2.41 2.41 96 1016.7